Forside
METAR-TAF:

METAR-TAF

Lufthavne :

Fairfield Municipal Airport

Fairfield, Iowa, USA

Breddekreds: 41-03N, længdekreds: 091-59W, højde: 244 m

Aktuelle vejr

Denne rapport blev lavet for 17 minutter siden, kl. 14:15 UTC
Vind 10 kt fra nordøst
Temperatur 11°C
Fugtighed 66%
Tryk 1028 hPa
skyfri

METAR: KFFL 111415Z AUTO 05010KT CLR 11/05 A3035 RMK A01

Tid: 09:32 (14:32 UTC)


TAF: fraværende

Vejrobservationer og prognoser fra mere end 4000 lufthavne (METAR og TAF).

De gule og røde prikker repræsenterer de meteorologiske stationer.

Flyt musen over at se navnet på stationen.

Så klik over at se vejr observationer og prognoser.

At skifte det kort: Klik på de grønne knapper med et sort kors for at zoome ind; på den grønne knap med en bindestreg for at zoome ud; eller på de grønne pile for tilstødende kort.


METAR-TAF: